Wetterdaten: Mittwoch, 21.09.2011
Datum Zeit Temp. A. Feuchte A. Luftdruck Regen Wind Richtung Richtung Sonnenschein UV Solar Windben
21.09.2011 00:00 14,9 C 86 % 1021,2 hPa 0,0 mm 0,0 km/h (0 Bft) S-SW 202 0 min 0 UV-I 0 W/m 3,2 km/h (1 Bft)
21.09.2011 00:10 14,9 C 84 % 1021,3 hPa 0,0 mm 0,0 km/h (0 Bft) N 0 0 min 0 UV-I 0 W/m 0,0 km/h (0 Bft)
21.09.2011 00:20 15,0 C 83 % 1021,2 hPa 0,0 mm 0,0 km/h (0 Bft) N 0 0 min 0 UV-I 0 W/m 0,0 km/h (0 Bft)
21.09.2011 00:30 15,0 C 83 % 1021,2 hPa 0,0 mm 0,0 km/h (0 Bft) N 0 0 min 0 UV-I 0 W/m 0,0 km/h (0 Bft)
21.09.2011 00:40 15,0 C 82 % 1021,1 hPa 0,0 mm 0,0 km/h (0 Bft) N 0 0 min 0 UV-I 0 W/m 0,0 km/h (0 Bft)
21.09.2011 00:50 15,0 C 82 % 1021,2 hPa 0,0 mm 0,0 km/h (0 Bft) N 0 0 min 0 UV-I 0 W/m 0,0 km/h (0 Bft)
21.09.2011 01:00 15,0 C 82 % 1021,2 hPa 0,0 mm 0,0 km/h (0 Bft) N 0 0 min 0 UV-I 0 W/m 0,0 km/h (0 Bft)
21.09.2011 01:10 14,9 C 82 % 1021,1 hPa 0,0 mm 0,0 km/h (0 Bft) N 0 0 min 0 UV-I 0 W/m 0,0 km/h (0 Bft)
21.09.2011 01:20 14,8 C 83 % 1021,1 hPa 0,0 mm 0,0 km/h (0 Bft) N 0 0 min 0 UV-I 0 W/m 0,0 km/h (0 Bft)
21.09.2011 01:30 14,8 C 82 % 1021,0 hPa 0,0 mm 0,0 km/h (0 Bft) N 0 0 min 0 UV-I 0 W/m 0,0 km/h (0 Bft)
21.09.2011 01:40 14,7 C 83 % 1020,9 hPa 0,0 mm 0,0 km/h (0 Bft) N 0 0 min 0 UV-I 0 W/m 0,0 km/h (0 Bft)
21.09.2011 01:50 14,5 C 83 % 1020,9 hPa 0,0 mm 0,0 km/h (0 Bft) N 0 0 min 0 UV-I 0 W/m 0,0 km/h (0 Bft)
21.09.2011 02:00 14,4 C 83 % 1020,9 hPa 0,0 mm 0,0 km/h (0 Bft) N 0 0 min 0 UV-I 0 W/m 0,0 km/h (0 Bft)
21.09.2011 02:10 14,4 C 83 % 1020,9 hPa 0,0 mm 0,0 km/h (0 Bft) N 0 0 min 0 UV-I 0 W/m 0,0 km/h (0 Bft)
21.09.2011 02:20 14,4 C 83 % 1020,9 hPa 0,0 mm 0,0 km/h (0 Bft) N 0 0 min 0 UV-I 0 W/m 0,0 km/h (0 Bft)
21.09.2011 02:30 14,3 C 84 % 1020,9 hPa 0,0 mm 0,0 km/h (0 Bft) N 0 0 min 0 UV-I 0 W/m 0,0 km/h (0 Bft)
21.09.2011 02:40 14,2 C 84 % 1020,8 hPa 0,0 mm 0,0 km/h (0 Bft) N 0 0 min 0 UV-I 0 W/m 0,0 km/h (0 Bft)
21.09.2011 02:50 14,1 C 83 % 1020,7 hPa 0,0 mm 0,0 km/h (0 Bft) N 0 0 min 0 UV-I 0 W/m 0,0 km/h (0 Bft)
21.09.2011 03:00 14,1 C 83 % 1020,7 hPa 0,0 mm 0,0 km/h (0 Bft) S-SW 202 0 min 0 UV-I 0 W/m 1,6 km/h (1 Bft)
21.09.2011 03:10 14,1 C 83 % 1020,7 hPa 0,0 mm 0,0 km/h (0 Bft) S-SW 202 0 min 0 UV-I 0 W/m 1,6 km/h (1 Bft)
21.09.2011 03:20 14,0 C 82 % 1020,6 hPa 0,0 mm 0,0 km/h (0 Bft) S-SW 202 0 min 0 UV-I 0 W/m 3,2 km/h (1 Bft)
21.09.2011 03:30 14,1 C 82 % 1020,6 hPa 0,0 mm 0,0 km/h (0 Bft) S-SW 202 0 min 0 UV-I 0 W/m 1,6 km/h (1 Bft)
21.09.2011 03:40 14,1 C 82 % 1020,5 hPa 0,0 mm 0,0 km/h (0 Bft) S-SW 202 0 min 0 UV-I 0 W/m 1,6 km/h (1 Bft)
21.09.2011 03:50 14,1 C 82 % 1020,3 hPa 0,0 mm 0,0 km/h (0 Bft) S-SW 202 0 min 0 UV-I 0 W/m 1,6 km/h (1 Bft)
21.09.2011 04:00 14,1 C 82 % 1020,3 hPa 0,0 mm 0,0 km/h (0 Bft) S-SW 202 0 min 0 UV-I 0 W/m 1,6 km/h (1 Bft)
21.09.2011 04:10 14,0 C 83 % 1020,3 hPa 0,0 mm 0,0 km/h (0 Bft) S-SW 202 0 min 0 UV-I 0 W/m 1,6 km/h (1 Bft)
21.09.2011 04:20 13,9 C 83 % 1020,4 hPa 0,0 mm 0,0 km/h (0 Bft) S-SW 202 0 min 0 UV-I 0 W/m 1,6 km/h (1 Bft)
21.09.2011 04:30 13,8 C 83 % 1020,3 hPa 0,0 mm 0,0 km/h (0 Bft) S-SW 202 0 min 0 UV-I 0 W/m 1,6 km/h (1 Bft)
21.09.2011 04:40 13,8 C 83 % 1020,3 hPa 0,0 mm 0,0 km/h (0 Bft) S-SW 202 0 min 0 UV-I 0 W/m 3,2 km/h (1 Bft)
21.09.2011 04:50 13,8 C 83 % 1020,3 hPa 0,0 mm 0,0 km/h (0 Bft) S-SW 202 0 min 0 UV-I 0 W/m 1,6 km/h (1 Bft)
21.09.2011 05:00 13,7 C 83 % 1020,2 hPa 0,0 mm 0,0 km/h (0 Bft) S-SW 202 0 min 0 UV-I 0 W/m 1,6 km/h (1 Bft)
21.09.2011 05:10 13,7 C 83 % 1020,2 hPa 0,0 mm 0,0 km/h (0 Bft) S-SW 202 0 min 0 UV-I 0 W/m 1,6 km/h (1 Bft)
21.09.2011 05:20 13,7 C 83 % 1020,1 hPa 0,0 mm 0,0 km/h (0 Bft) S-SW 202 0 min 0 UV-I 0 W/m 1,6 km/h (1 Bft)
21.09.2011 05:30 13,7 C 83 % 1020,0 hPa 0,0 mm 0,0 km/h (0 Bft) S-SW 202 0 min 0 UV-I 0 W/m 1,6 km/h (1 Bft)
21.09.2011 05:40 13,6 C 83 % 1020,0 hPa 0,0 mm 0,0 km/h (0 Bft) S-SW 202 0 min 0 UV-I 0 W/m 1,6 km/h (1 Bft)
21.09.2011 05:50 13,6 C 83 % 1020,1 hPa 0,0 mm 0,0 km/h (0 Bft) S-SW 202 0 min 0 UV-I 0 W/m 1,6 km/h (1 Bft)
21.09.2011 06:00 13,6 C 84 % 1020,1 hPa 0,0 mm 0,0 km/h (0 Bft) S-SW 202 0 min 0 UV-I 0 W/m 1,6 km/h (1 Bft)
21.09.2011 06:10 13,6 C 84 % 1020,1 hPa 0,0 mm 0,0 km/h (0 Bft) S-SW 202 0 min 0 UV-I 0 W/m 1,6 km/h (1 Bft)
21.09.2011 06:20 13,5 C 84 % 1020,0 hPa 0,0 mm 0,0 km/h (0 Bft) S-SW 202 0 min 0 UV-I 0 W/m 1,6 km/h (1 Bft)
21.09.2011 06:30 13,6 C 84 % 1020,0 hPa 0,0 mm 0,0 km/h (0 Bft) S-SW 202 0 min 0 UV-I 0 W/m 1,6 km/h (1 Bft)
21.09.2011 06:40 13,6 C 83 % 1019,9 hPa 0,0 mm 0,0 km/h (0 Bft) S-SW 202 0 min 0 UV-I 0 W/m 1,6 km/h (1 Bft)
21.09.2011 06:50 13,7 C 83 % 1019,8 hPa 0,0 mm 0,0 km/h (0 Bft) S-SW 202 0 min 0 UV-I 0 W/m 1,6 km/h (1 Bft)
21.09.2011 07:00 13,7 C 84 % 1019,8 hPa 0,0 mm 0,0 km/h (0 Bft) S-SW 202 0 min 0 UV-I 0 W/m 1,6 km/h (1 Bft)
21.09.2011 07:10 13,7 C 84 % 1019,9 hPa 0,0 mm 0,0 km/h (0 Bft) S-SW 202 0 min 0 UV-I 0 W/m 1,6 km/h (1 Bft)
21.09.2011 07:20 13,7 C 84 % 1019,9 hPa 0,0 mm 0,0 km/h (0 Bft) S-SW 202 0 min 0 UV-I 0 W/m 3,2 km/h (1 Bft)
21.09.2011 07:30 13,7 C 84 % 1019,9 hPa 0,0 mm 0,0 km/h (0 Bft) S-SW 202 0 min 0 UV-I 0 W/m 4,8 km/h (1 Bft)
21.09.2011 07:40 13,7 C 84 % 1019,9 hPa 0,0 mm 0,0 km/h (0 Bft) S-SW 202 0 min 0 UV-I 7 W/m 4,8 km/h (1 Bft)
21.09.2011 07:50 13,8 C 84 % 1019,9 hPa 0,0 mm 0,0 km/h (0 Bft) S-SW 202 0 min 0 UV-I 14 W/m 1,6 km/h (1 Bft)
21.09.2011 08:00 13,8 C 84 % 1019,9 hPa 0,0 mm 0,6 km/h (0 Bft) S-SO 161 0 min 0 UV-I 18 W/m 4,8 km/h (1 Bft)
21.09.2011 08:10 13,8 C 84 % 1020,0 hPa 0,0 mm 0,0 km/h (0 Bft) S-SO 157 0 min 0 UV-I 21 W/m 4,8 km/h (1 Bft)
21.09.2011 08:20 13,9 C 83 % 1019,9 hPa 0,0 mm 0,0 km/h (0 Bft) S-SO 157 0 min 0 UV-I 32 W/m 4,8 km/h (1 Bft)
21.09.2011 08:30 14,1 C 83 % 1019,9 hPa 0,0 mm 0,0 km/h (0 Bft) S-SO 157 0 min 0 UV-I 39 W/m 4,8 km/h (1 Bft)
21.09.2011 08:40 14,2 C 83 % 1020,0 hPa 0,0 mm 0,0 km/h (0 Bft) S-SO 157 0 min 0 UV-I 40 W/m 1,6 km/h (1 Bft)
21.09.2011 08:50 14,3 C 82 % 1020,0 hPa 0,0 mm 0,0 km/h (0 Bft) S-SO 157 0 min 0 UV-I 37 W/m 1,6 km/h (1 Bft)
21.09.2011 09:00 14,4 C 82 % 1020,0 hPa 0,0 mm 0,0 km/h (0 Bft) S-SO 157 0 min 0 UV-I 54 W/m 1,6 km/h (1 Bft)
21.09.2011 09:10 14,6 C 80 % 1020,1 hPa 0,0 mm 1,6 km/h (1 Bft) S-SO 157 0 min 0 UV-I 62 W/m 9,7 km/h (2 Bft)
21.09.2011 09:20 14,9 C 78 % 1020,0 hPa 0,0 mm 1,6 km/h (1 Bft) SW 225 0 min 1 UV-I 67 W/m 8,0 km/h (2 Bft)
21.09.2011 09:30 15,0 C 78 % 1020,0 hPa 0,0 mm 1,6 km/h (1 Bft) S-SW 202 0 min 1 UV-I 69 W/m 8,0 km/h (2 Bft)
21.09.2011 09:40 15,1 C 77 % 1020,0 hPa 0,0 mm 0,0 km/h (0 Bft) SW 225 0 min 1 UV-I 76 W/m 6,4 km/h (2 Bft)
21.09.2011 09:50 15,2 C 77 % 1020,1 hPa 0,0 mm 1,6 km/h (1 Bft) SW 225 0 min 1 UV-I 72 W/m 9,7 km/h (2 Bft)
21.09.2011 10:00 15,3 C 77 % 1020,1 hPa 0,0 mm 1,6 km/h (1 Bft) SW 225 0 min 1 UV-I 70 W/m 4,8 km/h (1 Bft)
21.09.2011 10:10 15,4 C 76 % 1020,1 hPa 0,0 mm 0,0 km/h (0 Bft) S-SW 202 0 min 1 UV-I 77 W/m 6,4 km/h (2 Bft)
21.09.2011 10:20 15,4 C 76 % 1020,0 hPa 0,0 mm 0,0 km/h (0 Bft) S-SW 202 0 min 1 UV-I 86 W/m 6,4 km/h (2 Bft)
21.09.2011 10:30 15,6 C 76 % 1019,9 hPa 0,0 mm 1,6 km/h (1 Bft) S 180 0 min 1 UV-I 98 W/m 8,0 km/h (2 Bft)
21.09.2011 10:40 15,7 C 76 % 1019,9 hPa 0,0 mm 1,6 km/h (1 Bft) S 180 0 min 1 UV-I 121 W/m 8,0 km/h (2 Bft)
21.09.2011 10:50 15,9 C 75 % 1019,9 hPa 0,0 mm 1,6 km/h (1 Bft) S-SW 202 0 min 1 UV-I 134 W/m 8,0 km/h (2 Bft)
21.09.2011 11:00 16,1 C 74 % 1019,9 hPa 0,0 mm 1,6 km/h (1 Bft) S-SW 202 0 min 1 UV-I 132 W/m 8,0 km/h (2 Bft)
21.09.2011 11:10 16,2 C 74 % 1019,8 hPa 0,0 mm 1,6 km/h (1 Bft) S-SW 202 0 min 1 UV-I 142 W/m 8,0 km/h (2 Bft)
21.09.2011 11:20 16,3 C 74 % 1019,9 hPa 0,0 mm 1,6 km/h (1 Bft) S-SW 202 0 min 1 UV-I 141 W/m 8,0 km/h (2 Bft)
21.09.2011 11:30 16,4 C 73 % 1019,9 hPa 0,0 mm 3,2 km/h (1 Bft) SW 225 0 min 1 UV-I 146 W/m 14,5 km/h (3 Bft)
21.09.2011 11:40 16,5 C 73 % 1019,7 hPa 0,0 mm 1,6 km/h (1 Bft) S-SW 202 0 min 1 UV-I 153 W/m 8,0 km/h (2 Bft)
21.09.2011 11:50 16,6 C 71 % 1019,6 hPa 0,0 mm 3,2 km/h (1 Bft) S 180 0 min 1 UV-I 156 W/m 9,7 km/h (2 Bft)
21.09.2011 12:00 16,7 C 70 % 1019,6 hPa 0,0 mm 1,6 km/h (1 Bft) S-SW 202 0 min 1 UV-I 148 W/m 11,3 km/h (2 Bft)
21.09.2011 12:10 16,7 C 69 % 1019,6 hPa 0,0 mm 1,6 km/h (1 Bft) S-SW 202 0 min 1 UV-I 146 W/m 11,3 km/h (2 Bft)
21.09.2011 12:20 16,8 C 69 % 1019,5 hPa 0,0 mm 3,2 km/h (1 Bft) SW 225 0 min 2 UV-I 160 W/m 11,3 km/h (2 Bft)
21.09.2011 12:30 16,9 C 69 % 1019,4 hPa 0,0 mm 3,2 km/h (1 Bft) S-SW 202 0 min 2 UV-I 186 W/m 9,7 km/h (2 Bft)
21.09.2011 12:40 17,1 C 69 % 1019,3 hPa 0,0 mm 3,2 km/h (1 Bft) SW 225 0 min 2 UV-I 204 W/m 16,1 km/h (3 Bft)
21.09.2011 12:50 17,2 C 69 % 1019,3 hPa 0,0 mm 3,2 km/h (1 Bft) S-SW 202 0 min 2 UV-I 202 W/m 16,1 km/h (3 Bft)
21.09.2011 13:00 17,3 C 67 % 1019,4 hPa 0,0 mm 3,2 km/h (1 Bft) S-SW 202 0 min 2 UV-I 200 W/m 14,5 km/h (3 Bft)
21.09.2011 13:10 17,3 C 67 % 1019,4 hPa 0,0 mm 4,8 km/h (1 Bft) SW 225 0 min 2 UV-I 193 W/m 16,1 km/h (3 Bft)
21.09.2011 13:20 17,4 C 66 % 1019,4 hPa 0,0 mm 4,8 km/h (1 Bft) S-SW 202 0 min 2 UV-I 197 W/m 16,1 km/h (3 Bft)
21.09.2011 13:30 17,4 C 65 % 1019,2 hPa 0,0 mm 4,8 km/h (1 Bft) SW 225 0 min 2 UV-I 211 W/m 16,1 km/h (3 Bft)
21.09.2011 13:40 17,6 C 64 % 1019,1 hPa 0,0 mm 4,8 km/h (1 Bft) S-SW 202 0 min 2 UV-I 213 W/m 16,1 km/h (3 Bft)
21.09.2011 13:50 17,7 C 65 % 1019,0 hPa 0,0 mm 3,2 km/h (1 Bft) W-SW 247 0 min 2 UV-I 188 W/m 14,5 km/h (3 Bft)
21.09.2011 14:00 17,7 C 65 % 1018,9 hPa 0,0 mm 3,2 km/h (1 Bft) W 270 0 min 2 UV-I 155 W/m 12,9 km/h (3 Bft)
21.09.2011 14:10 17,6 C 66 % 1018,9 hPa 0,0 mm 4,8 km/h (1 Bft) W 270 0 min 2 UV-I 155 W/m 12,9 km/h (3 Bft)
21.09.2011 14:20 17,6 C 66 % 1018,7 hPa 0,0 mm 3,2 km/h (1 Bft) W 270 0 min 3 UV-I 315 W/m 11,3 km/h (2 Bft)
21.09.2011 14:30 17,8 C 67 % 1018,5 hPa 0,0 mm 1,6 km/h (1 Bft) W 270 0 min 3 UV-I 276 W/m 8,0 km/h (2 Bft)
21.09.2011 14:40 17,7 C 66 % 1018,4 hPa 0,0 mm 3,2 km/h (1 Bft) W 270 0 min 1 UV-I 160 W/m 11,3 km/h (2 Bft)
21.09.2011 14:50 17,4 C 68 % 1018,3 hPa 0,0 mm 1,6 km/h (1 Bft) W-SW 247 0 min 2 UV-I 225 W/m 9,7 km/h (2 Bft)
21.09.2011 15:00 17,5 C 68 % 1018,3 hPa 0,0 mm 3,2 km/h (1 Bft) W 270 0 min 2 UV-I 206 W/m 8,0 km/h (2 Bft)
21.09.2011 15:10 17,5 C 68 % 1018,2 hPa 0,0 mm 1,6 km/h (1 Bft) W 270 0 min 2 UV-I 169 W/m 8,0 km/h (2 Bft)
21.09.2011 15:20 17,6 C 68 % 1018,1 hPa 0,0 mm 1,6 km/h (1 Bft) W 270 0 min 2 UV-I 255 W/m 8,0 km/h (2 Bft)
21.09.2011 15:30 17,6 C 67 % 1018,0 hPa 0,0 mm 4,8 km/h (1 Bft) W 270 0 min 2 UV-I 185 W/m 9,7 km/h (2 Bft)
21.09.2011 15:40 17,5 C 68 % 1017,9 hPa 0,0 mm 3,2 km/h (1 Bft) W-SW 247 0 min 1 UV-I 163 W/m 9,7 km/h (2 Bft)
21.09.2011 15:50 17,5 C 68 % 1017,9 hPa 0,0 mm 1,6 km/h (1 Bft) W 270 0 min 1 UV-I 151 W/m 6,4 km/h (2 Bft)
21.09.2011 16:00 17,4 C 69 % 1017,8 hPa 0,0 mm 0,5 km/h (0 Bft) W-SW 256 0 min 1 UV-I 180 W/m 4,8 km/h (1 Bft)
21.09.2011 16:10 17,7 C 68 % 1017,9 hPa 0,0 mm 1,6 km/h (1 Bft) W-SW 247 0 min 2 UV-I 246 W/m 6,4 km/h (2 Bft)
21.09.2011 16:20 17,8 C 68 % 1017,8 hPa 0,0 mm 3,2 km/h (1 Bft) W 270 0 min 1 UV-I 171 W/m 9,7 km/h (2 Bft)
21.09.2011 16:30 17,7 C 68 % 1017,9 hPa 0,0 mm 1,6 km/h (1 Bft) SW 225 0 min 1 UV-I 107 W/m 8,0 km/h (2 Bft)
21.09.2011 16:40 17,6 C 69 % 1017,8 hPa 0,0 mm 3,2 km/h (1 Bft) W 270 0 min 1 UV-I 86 W/m 14,5 km/h (3 Bft)
21.09.2011 16:50 17,5 C 68 % 1017,8 hPa 0,0 mm 1,6 km/h (1 Bft) SW 225 0 min 1 UV-I 111 W/m 8,0 km/h (2 Bft)
21.09.2011 17:00 17,6 C 68 % 1017,6 hPa 0,0 mm 1,6 km/h (1 Bft) SW 225 0 min 1 UV-I 95 W/m 6,4 km/h (2 Bft)
21.09.2011 17:10 17,4 C 68 % 1017,5 hPa 0,0 mm 1,6 km/h (1 Bft) W-SW 247 0 min 0 UV-I 54 W/m 9,7 km/h (2 Bft)
21.09.2011 17:20 17,4 C 69 % 1017,4 hPa 0,0 mm 1,6 km/h (1 Bft) W-SW 247 0 min 1 UV-I 84 W/m 6,4 km/h (2 Bft)
21.09.2011 17:30 17,4 C 69 % 1017,4 hPa 0,0 mm 1,6 km/h (1 Bft) W 270 0 min 1 UV-I 100 W/m 8,0 km/h (2 Bft)
21.09.2011 17:40 17,4 C 69 % 1017,4 hPa 0,0 mm 0,0 km/h (0 Bft) W-SW 247 0 min 1 UV-I 83 W/m 6,4 km/h (2 Bft)
21.09.2011 17:50 17,4 C 69 % 1017,3 hPa 0,0 mm 1,6 km/h (1 Bft) S-SW 202 0 min 1 UV-I 88 W/m 8,0 km/h (2 Bft)
21.09.2011 18:00 17,4 C 70 % 1017,3 hPa 0,0 mm 0,0 km/h (0 Bft) S-SW 202 0 min 1 UV-I 70 W/m 4,8 km/h (1 Bft)
21.09.2011 18:10 17,4 C 70 % 1017,4 hPa 0,0 mm 0,0 km/h (0 Bft) S-SW 202 0 min 0 UV-I 51 W/m 3,2 km/h (1 Bft)
21.09.2011 18:20 17,3 C 71 % 1017,4 hPa 0,0 mm 0,0 km/h (0 Bft) S-SW 202 0 min 0 UV-I 35 W/m 4,8 km/h (1 Bft)
21.09.2011 18:30 17,1 C 71 % 1017,4 hPa 0,0 mm 0,0 km/h (0 Bft) S-SW 202 0 min 0 UV-I 35 W/m 4,8 km/h (1 Bft)
21.09.2011 18:40 17,0 C 73 % 1017,3 hPa 0,0 mm 0,0 km/h (0 Bft) S-SW 202 0 min 0 UV-I 37 W/m 1,6 km/h (1 Bft)
21.09.2011 18:50 16,9 C 73 % 1017,3 hPa 0,0 mm 0,0 km/h (0 Bft) N 0 0 min 0 UV-I 28 W/m 0,0 km/h (0 Bft)
21.09.2011 19:00 16,8 C 73 % 1017,3 hPa 0,0 mm 0,0 km/h (0 Bft) S-SW 202 0 min 0 UV-I 18 W/m 1,6 km/h (1 Bft)
21.09.2011 19:10 16,7 C 73 % 1017,3 hPa 0,0 mm 0,0 km/h (0 Bft) S-SW 202 0 min 0 UV-I 11 W/m 1,6 km/h (1 Bft)
21.09.2011 19:20 16,6 C 73 % 1017,3 hPa 0,0 mm 0,0 km/h (0 Bft) S-SW 202 0 min 0 UV-I 7 W/m 1,6 km/h (1 Bft)
21.09.2011 19:30 16,5 C 74 % 1017,4 hPa 0,0 mm 0,0 km/h (0 Bft) N 0 0 min 0 UV-I 0 W/m 0,0 km/h (0 Bft)
21.09.2011 19:40 16,4 C 75 % 1017,4 hPa 0,0 mm 0,0 km/h (0 Bft) N 0 0 min 0 UV-I 0 W/m 0,0 km/h (0 Bft)
21.09.2011 19:50 16,3 C 75 % 1017,4 hPa 0,0 mm 0,0 km/h (0 Bft) N 0 0 min 0 UV-I 0 W/m 0,0 km/h (0 Bft)
21.09.2011 20:00 16,2 C 77 % 1017,4 hPa 0,0 mm 0,0 km/h (0 Bft) N 0 0 min 0 UV-I 0 W/m 0,0 km/h (0 Bft)
21.09.2011 20:10 16,1 C 77 % 1017,3 hPa 0,0 mm 0,0 km/h (0 Bft) N 0 0 min 0 UV-I 0 W/m 0,0 km/h (0 Bft)
21.09.2011 20:20 15,9 C 78 % 1017,3 hPa 0,0 mm 0,0 km/h (0 Bft) N 0 0 min 0 UV-I 0 W/m 0,0 km/h (0 Bft)
21.09.2011 20:30 15,8 C 77 % 1017,3 hPa 0,0 mm 0,0 km/h (0 Bft) N 0 0 min 0 UV-I 0 W/m 0,0 km/h (0 Bft)
21.09.2011 20:40 15,7 C 78 % 1017,3 hPa 0,0 mm 0,0 km/h (0 Bft) N 0 0 min 0 UV-I 0 W/m 0,0 km/h (0 Bft)
21.09.2011 20:50 15,7 C 78 % 1017,3 hPa 0,0 mm 0,0 km/h (0 Bft) N 0 0 min 0 UV-I 0 W/m 0,0 km/h (0 Bft)
21.09.2011 21:00 15,6 C 77 % 1017,2 hPa 0,0 mm 0,0 km/h (0 Bft) N 0 0 min 0 UV-I 0 W/m 0,0 km/h (0 Bft)
21.09.2011 21:10 15,6 C 76 % 1017,1 hPa 0,0 mm 0,0 km/h (0 Bft) S-SW 202 0 min 0 UV-I 0 W/m 3,2 km/h (1 Bft)
21.09.2011 21:20 15,6 C 75 % 1017,0 hPa 0,0 mm 0,0 km/h (0 Bft) S-SW 202 0 min 0 UV-I 0 W/m 3,2 km/h (1 Bft)
21.09.2011 21:30 15,6 C 75 % 1017,0 hPa 0,0 mm 0,0 km/h (0 Bft) S-SW 202 0 min 0 UV-I 0 W/m 1,6 km/h (1 Bft)
21.09.2011 21:40 15,4 C 74 % 1016,9 hPa 0,0 mm 0,0 km/h (0 Bft) S-SW 202 0 min 0 UV-I 0 W/m 3,2 km/h (1 Bft)
21.09.2011 21:50 15,2 C 74 % 1016,9 hPa 0,0 mm 0,0 km/h (0 Bft) S-SW 202 0 min 0 UV-I 0 W/m 1,6 km/h (1 Bft)
21.09.2011 22:00 15,0 C 74 % 1017,0 hPa 0,0 mm 0,0 km/h (0 Bft) S-SW 202 0 min 0 UV-I 0 W/m 3,2 km/h (1 Bft)
21.09.2011 22:10 14,9 C 75 % 1017,0 hPa 0,0 mm 0,0 km/h (0 Bft) S-SW 202 0 min 0 UV-I 0 W/m 1,6 km/h (1 Bft)
21.09.2011 22:20 14,8 C 75 % 1017,0 hPa 0,0 mm 0,0 km/h (0 Bft) S-SW 202 0 min 0 UV-I 0 W/m 1,6 km/h (1 Bft)
21.09.2011 22:30 14,9 C 75 % 1017,0 hPa 0,0 mm 0,0 km/h (0 Bft) S-SW 202 0 min 0 UV-I 0 W/m 1,6 km/h (1 Bft)
21.09.2011 22:40 14,9 C 75 % 1016,9 hPa 0,0 mm 0,0 km/h (0 Bft) S-SW 202 0 min 0 UV-I 0 W/m 1,6 km/h (1 Bft)
21.09.2011 22:50 14,8 C 76 % 1016,9 hPa 0,0 mm 0,0 km/h (0 Bft) S-SW 202 0 min 0 UV-I 0 W/m 3,2 km/h (1 Bft)
21.09.2011 23:00 14,9 C 75 % 1016,9 hPa 0,0 mm 0,0 km/h (0 Bft) S-SW 202 0 min 0 UV-I 0 W/m 4,8 km/h (1 Bft)
21.09.2011 23:10 15,0 C 75 % 1016,9 hPa 0,0 mm 0,0 km/h (0 Bft) S-SW 202 0 min 0 UV-I 0 W/m 3,2 km/h (1 Bft)
21.09.2011 23:20 15,1 C 75 % 1016,7 hPa 0,0 mm 0,0 km/h (0 Bft) S-SW 202 0 min 0 UV-I 0 W/m 4,8 km/h (1 Bft)
21.09.2011 23:30 15,2 C 75 % 1016,6 hPa 0,0 mm 0,0 km/h (0 Bft) S-SW 202 0 min 0 UV-I 0 W/m 6,4 km/h (2 Bft)
21.09.2011 23:40 15,3 C 74 % 1016,6 hPa 0,0 mm 1,6 km/h (1 Bft) SW 225 0 min 0 UV-I 0 W/m 8,0 km/h (2 Bft)
21.09.2011 23:50 15,3 C 75 % 1016,5 hPa 0,0 mm 1,6 km/h (1 Bft) SW 225 0 min 0 UV-I 0 W/m 6,4 km/h (2 Bft)
_ Min-Zeit 06:10 13:40 23:50 - 00:00 - - - - - 00:10
Minimum _ 13,5 C 64 % 1016,5 hPa - 0,0 km/h (0 Bft) - - - - - 0,0 km/h (0 Bft)
_ Max-Zeit 14:30 00:00 00:10 00:00 13:10 - - 00:00 14:20 14:20 12:40
Maximum _ 17,8 C 86 % 1021,3 hPa 0,0 mm 4,8 km/h
SW (1 Bft)
- - 0 min 3 UV-I 315 W/m 16,1 km/h
SW (3 Bft)
Durchschnitt _ 15,6 C 76 % 1019,0 hPa #0,0 mm 0,9 km/h (0 Bft) S-SW - #0 min. 1 UV-I 119 W/m 4,8 km/h (1 Bft)